SCOUT A DEB, 2141

Orbit data source: Space-Track

SCOUT A DEB, 2141 is space debris in LEO originally from a launch on Fri, 28 Jan 1966 UTC launched from the Air Force Western Test Range (AFWTR). Debris objects in space refer to the collection of defunct objects orbiting the Earth. Examples of debris include non-operational satellites, rocket bodies, and fragments generated from explosions, collisions, or faulty payload assembly.

Loading next visibility...
Identifier
2141, 1966-005D
Orbit
LEO
Country
Flag of USUS
Related business
Manufacturer
Unknown
Mission
Spacecraft
Bus & Motor
Unknown
Mass
Unknown
Launch date (UTC)
1966-01-28 (60 years ago)
Launch vehicle
Unknown
Launch site
Air Force Western Test Range (AFWTR)
Object type
Payload
Rocket body
Debris
Shape & HBR
Unknown
Radar Cross Section
Small (<0.1 m²)

Expand to show TLE details & history
Last TLE update: 3 days ago

TLE from 3 days ago
0 SCOUT A DEB
1 02141U 66005D   25258.93121818  .00000340  00000-0  19224-3 0  9998
2 02141  90.2269 251.3626 0114600 212.8454 146.5571 14.05421543 30057
Epoch: 2025-09-15T22:20Z
TLE epoch observation values (Epoch: 2025-09-15T22:20:57.25Z)
Latitude
-0.00004°
Longitude
-79.00474°
Altitude
947.775 km
Speed
7.342 km/s
True Right ascension
16h 45m 27s
True Declination
0° 00' 00"
Sunlit
Object was in daylight at epoch
Visualization orbit readout
Latitude
Unknown
Longitude
Unknown
Altitude
Unknown
Speed
Unknown
Apparent Right ascension
Unknown
Apparent Declination
Unknown
Sunlit
N/A
Visualization observer readout
Local Sidereal Time
06:28:54
Azimuth
Unknown
Elevation
Unknown
Doppler factor
Unknown
Orbital elements
Apogee altitude
955.138 km
Perigee altitude
788.963 km
Semi-major axis
7,250.188 km
Eccentricity
0.01146
Inclination
90.2269°
RAAN
251.3626°
Arg. of periapsis
212.8454°
True anomaly
147.27225°
Mean anomaly
146.5571°
Eccentric anomaly
146.91553°
Mean motion
3.51576 °/min
Orbital period
102.4 mins
BSTAR
0.00019224
Loading maneuver chart data...
Computing Atmospheric mass density...
Loading historical data...
Loading historical data...
Loading historical data...
Loading historical data...
Loading historical data...
Loading historical data...
Loading historical data...

Documentation

Showing up to 5 results
|